User: anonymous
Location: Unspecified
(0.0000°N, 0.0000°E)
Time: 04:13:48
(UTC+00:00)
Language:

HO-68 - Orbit

View from above orbital plane
View from above orbital plane
View from above satellite
View from above satellite

Ground track
Ground track

The orbit data is extracted from the following two-line orbital elements,

1 36122U 09072B   14208.69749106 -.00000043  00000-0  00000+0 0  8018
2 36122 100.2449 259.3340 0007780 143.6087 216.5556 13.16317126221762
Epoch (UTC): 27 July 2014 16:44:23
Eccentricity: 0.0007780
inclination: 100.2449°
perigee height: 1193 km
apogee height: 1205 km
right ascension of ascending node: 259.3340°
argument of perigee: 143.6087°
revolutions per day: 13.16317126
mean anomaly at epoch: 216.5556°
orbit number at epoch: 22176

The dashed part of the orbit path shows where the satellite is in the earth's shadow,  

DLR